| time (UTC) | temp F | wind direction | speed MPH | gust MPH | rain 1hr in | rain 24hr in | rain mn in | humidity % | barometer mb |
| 20260510173700 | 82 | 318 | 2.0 | 3.0 | 0.00 | 0.00 | 0.00 | 29 | 1010.1 |
| 20260510173157 | 81 | 292 | 3.0 | 3.0 | 0.00 | 0.00 | 0.00 | 29 | 1010.1 |
| 20260510172652 | 82 | 190 | 1.0 | 1.0 | 0.00 | 0.00 | 0.00 | 27 | 1010.2 |
| 20260510172149 | 82 | 205 | 1.0 | 1.0 | 0.00 | 0.00 | 0.00 | 28 | 1010.3 |
| 20260510171645 | 82 | 186 | 2.0 | 2.0 | 0.00 | 0.00 | 0.00 | 26 | 1010.5 |
| 20260510171143 | 83 | 181 | 1.0 | 1.0 | 0.00 | 0.00 | 0.00 | 25 | 1010.4 |
| 20260510170639 | 82 | 196 | 2.0 | 1.0 | 0.00 | 0.00 | 0.00 | 29 | 1010.4 |
| 20260510170136 | 82 | 196 | 1.0 | 1.0 | 0.00 | 0.00 | 0.00 | 27 | 1010.3 |
| 20260510165631 | 82 | 190 | 1.0 | 2.0 | 0.00 | 0.00 | 0.00 | 27 | 1010.6 |
| 20260510165127 | 82 | 170 | 1.0 | 1.0 | 0.00 | 0.00 | 0.00 | 30 | 1010.3 |
| 20260510164625 | 82 | 181 | 2.0 | 2.0 | 0.00 | 0.00 | 0.00 | 29 | 1010.3 |
| 20260510164122 | 83 | 238 | 2.0 | 2.0 | 0.00 | 0.00 | 0.00 | 29 | 1010.5 |
| 20260510163617 | 82 | 194 | 0.0 | 1.0 | 0.00 | 0.00 | 0.00 | 34 | 1010.3 |
| 20260510163114 | 82 | 217 | 2.0 | 2.0 | 0.00 | 0.00 | 0.00 | 30 | 1010.2 |
| 20260510162608 | 82 | 186 | 0.0 | 0.0 | 0.00 | 0.00 | 0.00 | 33 | 1010.6 |
| 20260510162105 | 81 | 173 | 3.0 | 3.0 | 0.00 | 0.00 | 0.00 | 31 | 1010.5 |
| 20260510161600 | 80 | 359 | 1.0 | 2.0 | 0.00 | 0.00 | 0.00 | 32 | 1010.6 |
| 20260510161058 | 80 | 297 | 2.0 | 2.0 | 0.00 | 0.00 | 0.00 | 32 | 1010.3 |
| 20260510160555 | 81 | 178 | 1.0 | 1.0 | 0.00 | 0.00 | 0.00 | 32 | 1010.6 |
| 20260510160054 | 80 | 223 | 1.0 | 1.0 | 0.00 | 0.00 | 0.00 | 34 | 1010.7 |
| 20260510155551 | 80 | 208 | 0.0 | 0.0 | 0.00 | 0.00 | 0.00 | 37 | 1010.4 |
| 20260510155048 | 80 | 259 | 1.0 | 1.0 | 0.00 | 0.00 | 0.00 | 36 | 1010.8 |
| 20260510154543 | 79 | 217 | 1.0 | 1.0 | 0.00 | 0.00 | 0.00 | 36 | 1010.5 |
| 20260510154038 | 79 | 148 | 0.0 | 0.0 | 0.00 | 0.00 | 0.00 | 39 | 1010.6 |
| 20260510153533 | 79 | 225 | 1.0 | 1.0 | 0.00 | 0.00 | 0.00 | 38 | 1010.6 |
| 20260510153031 | 79 | 185 | 2.0 | 2.0 | 0.00 | 0.00 | 0.00 | 38 | 1010.5 |
| 20260510152528 | 79 | 129 | 2.0 | 2.0 | 0.00 | 0.00 | 0.00 | 36 | 1010.6 |
| 20260510152024 | 78 | 243 | 2.0 | 2.0 | 0.00 | 0.00 | 0.00 | 37 | 1010.6 |
| 20260510151521 | 77 | 189 | 0.0 | 0.0 | 0.00 | 0.00 | 0.00 | 39 | 1010.6 |
| 20260510151018 | 77 | 178 | 1.0 | 1.0 | 0.00 | 0.00 | 0.00 | 43 | 1010.7 |
| 20260510150513 | 77 | 14 | 0.0 | 0.0 | 0.00 | 0.00 | 0.00 | 43 | 1010.7 |
| 20260510150010 | 77 | 208 | 2.0 | 2.0 | 0.00 | 0.00 | 0.00 | 43 | 1010.7 |
| 20260510145506 | 76 | 173 | 1.0 | 1.0 | 0.00 | 0.00 | 0.00 | 45 | 1010.8 |
| 20260510145002 | 76 | 196 | 1.0 | 2.0 | 0.00 | 0.00 | 0.00 | 43 | 1010.7 |
| 20260510144459 | 76 | 189 | 2.0 | 2.0 | 0.00 | 0.00 | 0.00 | 46 | 1010.7 |
| 20260510143955 | 75 | 208 | 1.0 | 1.0 | 0.00 | 0.00 | 0.00 | 48 | 1010.8 |
| 20260510143451 | 75 | 223 | 1.0 | 1.0 | 0.00 | 0.00 | 0.00 | 49 | 1010.9 |
| 20260510142948 | 74 | 182 | 1.0 | 1.0 | 0.00 | 0.00 | 0.00 | 48 | 1010.8 |
| 20260510142445 | 73 | 217 | 1.0 | 1.0 | 0.00 | 0.00 | 0.00 | 50 | 1010.7 |
| 20260510141941 | 73 | 172 | 1.0 | 1.0 | 0.00 | 0.00 | 0.00 | 53 | 1010.7 |
| 20260510141438 | 72 | 186 | 1.0 | 1.0 | 0.00 | 0.00 | 0.00 | 56 | 1010.7 |
| 20260510140935 | 71 | 186 | 0.0 | 1.0 | 0.00 | 0.00 | 0.00 | 55 | 1010.5 |
| 20260510140431 | 71 | 205 | 0.0 | 0.0 | 0.00 | 0.00 | 0.00 | 58 | 1010.7 |
| 20260510135930 | 71 | 208 | 1.0 | 1.0 | 0.00 | 0.00 | 0.00 | 58 | 1010.7 |
| 20260510135426 | 70 | 210 | 0.0 | 0.0 | 0.00 | 0.00 | 0.00 | 61 | 1010.5 |
| 20260510134924 | 70 | 210 | 0.0 | 0.0 | 0.00 | 0.00 | 0.00 | 64 | 1010.6 |
| 20260510134420 | 69 | 196 | 0.0 | 0.0 | 0.00 | 0.00 | 0.00 | 66 | 1010.7 |
| 20260510133917 | 69 | 180 | 1.0 | 1.0 | 0.00 | 0.00 | 0.00 | 67 | 1010.4 |
| 20260510133413 | 68 | 152 | 0.0 | 0.0 | 0.00 | 0.00 | 0.00 | 69 | 1010.4 |
| 20260510132908 | 68 | 177 | 1.0 | 1.0 | 0.00 | 0.00 | 0.00 | 71 | 1010.5 |
| 20260510132407 | 67 | 194 | 0.0 | 0.0 | 0.00 | 0.00 | 0.00 | 72 | 1010.6 |
| 20260510131903 | 67 | 192 | 1.0 | 1.0 | 0.00 | 0.00 | 0.00 | 73 | 1010.6 |
| 20260510131401 | 67 | 177 | 0.0 | 0.0 | 0.00 | 0.00 | 0.00 | 74 | 1010.5 |
| 20260510130857 | 66 | 192 | 1.0 | 2.0 | 0.00 | 0.00 | 0.00 | 75 | 1010.5 |
| 20260510130354 | 66 | 206 | 0.0 | 0.0 | 0.00 | 0.00 | 0.00 | 78 | 1010.6 |
| 20260510125851 | 65 | 205 | 0.0 | 0.0 | 0.00 | 0.00 | 0.00 | 81 | 1010.6 |
| 20260510125347 | 65 | 205 | 0.0 | 0.0 | 0.00 | 0.00 | 0.00 | 83 | 1010.5 |
| 20260510124844 | 64 | 201 | 0.0 | 1.0 | 0.00 | 0.00 | 0.00 | 85 | 1010.5 |
| 20260510124341 | 64 | 217 | 0.0 | 0.0 | 0.00 | 0.00 | 0.00 | 88 | 1010.2 |
| 20260510123837 | 63 | 221 | 0.0 | 1.0 | 0.00 | 0.00 | 0.00 | 89 | 1010.6 |
| 20260510123332 | 62 | 220 | 0.0 | 0.0 | 0.00 | 0.00 | 0.00 | 93 | 1010.4 |
| 20260510122829 | 62 | 220 | 0.0 | 0.0 | 0.00 | 0.00 | 0.00 | 96 | 1010.3 |
| 20260510122325 | 61 | 220 | 0.0 | 0.0 | 0.00 | 0.00 | 0.00 | 97 | 1010.4 |
| 20260510121821 | 61 | 220 | 0.0 | 0.0 | 0.00 | 0.00 | 0.00 | 98 | 1010.2 |
| 20260510121319 | 61 | 220 | 0.0 | 1.0 | 0.00 | 0.00 | 0.00 | 98 | 1009.9 |
| 20260510120816 | 60 | 220 | 0.0 | 0.0 | 0.00 | 0.00 | 0.00 | 98 | 1009.7 |
| 20260510120313 | 60 | 220 | 0.0 | 0.0 | 0.00 | 0.00 | 0.00 | 98 | 1009.6 |
| 20260510115808 | 60 | 220 | 0.0 | 0.0 | 0.00 | 0.00 | 0.00 | 98 | 1009.7 |
| 20260510115307 | 58 | 221 | 0.0 | 0.0 | 0.00 | 0.00 | 0.00 | 98 | 1009.6 |
| 20260510114802 | 57 | 223 | 0.0 | 0.0 | 0.00 | 0.00 | 0.00 | 98 | 1009.5 |
| 20260510114259 | 56 | 223 | 0.0 | 0.0 | 0.00 | 0.00 | 0.00 | 98 | 1009.4 |
| 20260510113759 | 55 | 223 | 0.0 | 0.0 | 0.00 | 0.00 | 0.00 | 98 | 1009.5 |
| 20260510113257 | 55 | 223 | 0.0 | 0.0 | 0.00 | 0.00 | 0.00 | 98 | 1009.3 |
| 20260510112753 | 56 | 277 | 0.0 | 0.0 | 0.00 | 0.00 | 0.00 | 98 | 1009.1 |
| 20260510112250 | 57 | 277 | 0.0 | 0.0 | 0.00 | 0.00 | 0.00 | 98 | 1009.1 |
| 20260510111746 | 57 | 277 | 0.0 | 0.0 | 0.00 | 0.00 | 0.00 | 98 | 1008.9 |
| 20260510111243 | 56 | 277 | 0.0 | 0.0 | 0.00 | 0.00 | 0.00 | 98 | 1009.0 |
| 20260510110742 | 54 | 277 | 0.0 | 0.0 | 0.00 | 0.00 | 0.00 | 98 | 1008.8 |
| 20260510110241 | 53 | 277 | 0.0 | 0.0 | 0.00 | 0.00 | 0.00 | 97 | 1008.6 |
| 20260510105740 | 53 | 277 | 0.0 | 0.0 | 0.00 | 0.00 | 0.00 | 97 | 1008.6 |
| 20260510105235 | 53 | 277 | 0.0 | 0.0 | 0.00 | 0.00 | 0.00 | 97 | 1008.5 |
| 20260510104732 | 53 | 277 | 0.0 | 0.0 | 0.00 | 0.00 | 0.00 | 97 | 1008.6 |
| 20260510104230 | 53 | 277 | 0.0 | 0.0 | 0.00 | 0.00 | 0.00 | 97 | 1008.4 |
| 20260510103726 | 53 | 277 | 0.0 | 0.0 | 0.00 | 0.00 | 0.00 | 97 | 1008.5 |
| 20260510103223 | 54 | 277 | 0.0 | 0.0 | 0.00 | 0.00 | 0.00 | 97 | 1008.4 |
| 20260510102722 | 54 | 277 | 0.0 | 0.0 | 0.00 | 0.00 | 0.00 | 97 | 1008.4 |
| 20260510102218 | 54 | 277 | 0.0 | 0.0 | 0.00 | 0.00 | 0.00 | 97 | 1008.3 |
| 20260510101716 | 54 | 277 | 0.0 | 0.0 | 0.00 | 0.00 | 0.00 | 97 | 1008.3 |
| 20260510101215 | 54 | 277 | 0.0 | 0.0 | 0.00 | 0.00 | 0.00 | 97 | 1008.1 |
| 20260510100710 | 54 | 277 | 0.0 | 0.0 | 0.00 | 0.00 | 0.00 | 97 | 1008.1 |
| 20260510100209 | 54 | 277 | 0.0 | 0.0 | 0.00 | 0.00 | 0.00 | 97 | 1007.8 |
| 20260510095704 | 54 | 277 | 0.0 | 0.0 | 0.00 | 0.00 | 0.00 | 97 | 1008.0 |
| 20260510095159 | 55 | 277 | 0.0 | 0.0 | 0.00 | 0.00 | 0.00 | 97 | 1007.9 |
| 20260510094657 | 55 | 277 | 0.0 | 0.0 | 0.00 | 0.00 | 0.00 | 97 | 1007.9 |
| 20260510094154 | 55 | 277 | 0.0 | 0.0 | 0.00 | 0.00 | 0.00 | 97 | 1007.8 |
| 20260510093650 | 55 | 277 | 0.0 | 0.0 | 0.00 | 0.00 | 0.00 | 97 | 1007.8 |
| 20260510093147 | 55 | 277 | 0.0 | 0.0 | 0.00 | 0.00 | 0.00 | 97 | 1007.7 |
| 20260510092643 | 55 | 277 | 0.0 | 0.0 | 0.00 | 0.00 | 0.00 | 97 | 1007.6 |
| 20260510092139 | 55 | 277 | 0.0 | 0.0 | 0.00 | 0.00 | 0.00 | 97 | 1007.7 |
| 20260510091635 | 55 | 277 | 0.0 | 0.0 | 0.00 | 0.00 | 0.00 | 97 | 1007.4 |
| 20260510091131 | 55 | 277 | 0.0 | 0.0 | 0.00 | 0.00 | 0.00 | 97 | 1007.4 |
| 20260510090628 | 55 | 277 | 0.0 | 0.0 | 0.00 | 0.00 | 0.00 | 97 | 1007.4 |
| 20260510090125 | 55 | 277 | 0.0 | 0.0 | 0.00 | 0.00 | 0.00 | 97 | 1007.3 |
| 20260510085620 | 56 | 277 | 0.0 | 0.0 | 0.00 | 0.00 | 0.00 | 97 | 1007.6 |
| 20260510085115 | 56 | 277 | 0.0 | 0.0 | 0.00 | 0.00 | 0.00 | 97 | 1007.5 |
| 20260510084612 | 56 | 277 | 0.0 | 0.0 | 0.00 | 0.00 | 0.00 | 97 | 1007.6 |
| 20260510084109 | 56 | 277 | 0.0 | 0.0 | 0.00 | 0.00 | 0.00 | 97 | 1007.0 |
| 20260510083605 | 56 | 277 | 0.0 | 0.0 | 0.00 | 0.00 | 0.00 | 96 | 1007.0 |
| 20260510083101 | 56 | 277 | 0.0 | 0.0 | 0.00 | 0.00 | 0.00 | 96 | 1007.2 |
| 20260510082558 | 56 | 277 | 0.0 | 0.0 | 0.00 | 0.00 | 0.00 | 96 | 1006.9 |
| 20260510082054 | 56 | 277 | 0.0 | 0.0 | 0.00 | 0.00 | 0.00 | 96 | 1006.9 |
| 20260510081549 | 56 | 277 | 0.0 | 0.0 | 0.00 | 0.00 | 0.00 | 96 | 1006.8 |
| 20260510081045 | 56 | 277 | 0.0 | 0.0 | 0.00 | 0.00 | 0.00 | 96 | 1006.9 |
| 20260510080544 | 57 | 277 | 0.0 | 0.0 | 0.00 | 0.00 | 0.00 | 96 | 1006.9 |
| 20260510080041 | 57 | 277 | 0.0 | 0.0 | 0.00 | 0.00 | 0.00 | 96 | 1006.9 |
| 20260510075538 | 57 | 277 | 0.0 | 0.0 | 0.00 | 0.00 | 0.00 | 96 | 1006.9 |
| 20260510075035 | 57 | 277 | 0.0 | 0.0 | 0.00 | 0.00 | 0.00 | 96 | 1006.6 |
| 20260510074533 | 57 | 277 | 0.0 | 0.0 | 0.00 | 0.00 | 0.00 | 96 | 1006.6 |
| 20260510074028 | 57 | 277 | 0.0 | 0.0 | 0.00 | 0.00 | 0.00 | 96 | 1006.6 |
| 20260510073524 | 57 | 277 | 0.0 | 0.0 | 0.00 | 0.00 | 0.00 | 96 | 1006.7 |
| 20260510073021 | 57 | 277 | 0.0 | 0.0 | 0.00 | 0.00 | 0.00 | 96 | 1006.5 |
| 20260510072518 | 57 | 277 | 0.0 | 0.0 | 0.00 | 0.00 | 0.00 | 96 | 1006.5 |
| 20260510072014 | 57 | 277 | 0.0 | 0.0 | 0.00 | 0.00 | 0.00 | 95 | 1006.7 |
| 20260510071510 | 57 | 277 | 0.0 | 0.0 | 0.00 | 0.00 | 0.00 | 95 | 1006.5 |
| 20260510071009 | 57 | 277 | 0.0 | 0.0 | 0.00 | 0.00 | 0.00 | 95 | 1006.7 |
| 20260510070505 | 57 | 277 | 0.0 | 0.0 | 0.00 | 0.00 | 0.00 | 95 | 1006.3 |
| 20260510070001 | 58 | 277 | 0.0 | 0.0 | 0.00 | 0.00 | 0.00 | 95 | 1006.4 |
| 20260510065458 | 58 | 277 | 0.0 | 0.0 | 0.00 | 0.00 | 0.00 | 95 | 1006.4 |
| 20260510064954 | 58 | 277 | 0.0 | 0.0 | 0.00 | 0.00 | 0.00 | 95 | 1006.5 |
| 20260510064451 | 58 | 277 | 0.0 | 0.0 | 0.00 | 0.00 | 0.00 | 95 | 1006.4 |
| 20260510063948 | 58 | 277 | 0.0 | 0.0 | 0.00 | 0.00 | 0.00 | 95 | 1006.5 |
| 20260510063444 | 58 | 277 | 0.0 | 0.0 | 0.00 | 0.00 | 0.00 | 95 | 1006.5 |
| 20260510062942 | 58 | 277 | 0.0 | 0.0 | 0.00 | 0.00 | 0.00 | 94 | 1006.5 |
| 20260510062442 | 58 | 277 | 0.0 | 0.0 | 0.00 | 0.00 | 0.00 | 94 | 1006.6 |
| 20260510061938 | 58 | 277 | 0.0 | 0.0 | 0.00 | 0.00 | 0.00 | 95 | 1006.3 |
| 20260510061435 | 58 | 277 | 0.0 | 0.0 | 0.00 | 0.00 | 0.00 | 95 | 1006.6 |
| 20260510060931 | 58 | 277 | 0.0 | 0.0 | 0.00 | 0.00 | 0.00 | 95 | 1006.5 |
| 20260510060428 | 58 | 277 | 0.0 | 0.0 | 0.00 | 0.00 | 0.00 | 95 | 1006.5 |
| 20260510055924 | 58 | 277 | 0.0 | 0.0 | 0.00 | 0.00 | 0.00 | 95 | 1006.7 |
| 20260510055420 | 58 | 277 | 0.0 | 0.0 | 0.00 | 0.00 | 0.00 | 95 | 1006.5 |
| 20260510054919 | 58 | 277 | 0.0 | 0.0 | 0.00 | 0.00 | 0.00 | 95 | 1006.7 |
| 20260510054414 | 58 | 277 | 0.0 | 0.0 | 0.00 | 0.00 | 0.00 | 95 | 1006.6 |
| 20260510053909 | 59 | 277 | 0.0 | 0.0 | 0.00 | 0.00 | 0.00 | 95 | 1006.6 |
| 20260510053405 | 59 | 277 | 0.0 | 0.0 | 0.00 | 0.00 | 0.00 | 95 | 1006.6 |
| 20260510052901 | 59 | 277 | 0.0 | 0.0 | 0.00 | 0.00 | 0.00 | 95 | 1006.4 |
| 20260510052357 | 59 | 277 | 0.0 | 0.0 | 0.00 | 0.00 | 0.00 | 95 | 1006.6 |
| 20260510051853 | 59 | 277 | 0.0 | 0.0 | 0.00 | 0.00 | 0.00 | 95 | 1006.6 |
| 20260510051350 | 59 | 277 | 0.0 | 0.0 | 0.00 | 0.00 | 0.00 | 95 | 1006.8 |
| 20260510050847 | 59 | 277 | 0.0 | 0.0 | 0.00 | 0.00 | 0.00 | 95 | 1006.7 |
| 20260510050344 | 59 | 277 | 0.0 | 0.0 | 0.00 | 0.00 | 0.00 | 95 | 1006.8 |
| 20260510045841 | 59 | 277 | 0.0 | 0.0 | 0.00 | 0.00 | 0.00 | 95 | 1006.8 |
| 20260510045337 | 59 | 277 | 0.0 | 0.0 | 0.00 | 0.00 | 0.00 | 94 | 1006.7 |
| 20260510044835 | 59 | 277 | 0.0 | 0.0 | 0.00 | 0.00 | 0.00 | 94 | 1006.8 |
| 20260510044331 | 59 | 277 | 0.0 | 0.0 | 0.00 | 0.00 | 0.00 | 94 | 1006.8 |
| 20260510043828 | 59 | 277 | 0.0 | 0.0 | 0.00 | 0.00 | 0.00 | 94 | 1006.9 |
| 20260510043324 | 59 | 277 | 0.0 | 0.0 | 0.00 | 0.00 | 0.00 | 93 | 1007.0 |
| 20260510042822 | 59 | 277 | 0.0 | 0.0 | 0.00 | 0.00 | 0.00 | 93 | 1006.9 |
| 20260510042317 | 60 | 277 | 0.0 | 0.0 | 0.00 | 0.00 | 0.00 | 93 | 1007.0 |
| 20260510041814 | 60 | 277 | 0.0 | 0.0 | 0.00 | 0.00 | 0.00 | 92 | 1006.9 |
| 20260510041311 | 60 | 277 | 0.0 | 0.0 | 0.00 | 0.00 | 0.00 | 93 | 1007.0 |
| 20260510040808 | 60 | 277 | 0.0 | 0.0 | 0.00 | 0.00 | 0.00 | 93 | 1006.7 |
| 20260510040305 | 60 | 277 | 0.0 | 0.0 | 0.00 | 0.00 | 0.00 | 93 | 1006.8 |
| 20260510035800 | 60 | 277 | 0.0 | 0.0 | 0.00 | 0.00 | 0.00 | 93 | 1006.9 |
| 20260510035256 | 60 | 277 | 0.0 | 0.0 | 0.00 | 0.00 | 0.00 | 93 | 1007.2 |
| 20260510034752 | 60 | 277 | 0.0 | 0.0 | 0.00 | 0.00 | 0.00 | 92 | 1007.2 |
| 20260510034250 | 60 | 277 | 0.0 | 0.0 | 0.00 | 0.00 | 0.00 | 92 | 1007.0 |
| 20260510033746 | 60 | 277 | 0.0 | 0.0 | 0.00 | 0.00 | 0.00 | 91 | 1007.0 |
| 20260510033244 | 60 | 277 | 0.0 | 0.0 | 0.00 | 0.00 | 0.00 | 92 | 1007.0 |
| 20260510032740 | 60 | 277 | 0.0 | 0.0 | 0.00 | 0.00 | 0.00 | 91 | 1006.9 |
| 20260510032236 | 60 | 277 | 0.0 | 0.0 | 0.00 | 0.00 | 0.00 | 91 | 1007.0 |
| 20260510031732 | 61 | 277 | 0.0 | 0.0 | 0.00 | 0.00 | 0.00 | 92 | 1007.0 |
| 20260510031228 | 61 | 277 | 0.0 | 0.0 | 0.00 | 0.00 | 0.00 | 93 | 1007.0 |
| 20260510030727 | 60 | 277 | 0.0 | 0.0 | 0.00 | 0.00 | 0.00 | 92 | 1006.8 |
| 20260510030225 | 60 | 277 | 0.0 | 0.0 | 0.00 | 0.00 | 0.00 | 92 | 1006.9 |
| 20260510025722 | 60 | 277 | 0.0 | 0.0 | 0.00 | 0.00 | 0.00 | 92 | 1006.8 |
| 20260510025219 | 61 | 277 | 0.0 | 0.0 | 0.00 | 0.00 | 0.00 | 92 | 1007.0 |
| 20260510024716 | 61 | 277 | 0.0 | 0.0 | 0.00 | 0.00 | 0.00 | 92 | 1007.0 |
| 20260510024212 | 61 | 277 | 0.0 | 0.0 | 0.00 | 0.00 | 0.00 | 93 | 1006.7 |
| 20260510023708 | 61 | 277 | 0.0 | 0.0 | 0.00 | 0.00 | 0.00 | 93 | 1006.8 |
| 20260510023206 | 60 | 277 | 0.0 | 0.0 | 0.00 | 0.00 | 0.00 | 93 | 1006.6 |
| 20260510022702 | 60 | 277 | 0.0 | 0.0 | 0.00 | 0.00 | 0.00 | 93 | 1006.7 |
| 20260510022156 | 60 | 277 | 0.0 | 0.0 | 0.00 | 0.00 | 0.00 | 93 | 1006.7 |
| 20260510021652 | 60 | 277 | 0.0 | 0.0 | 0.00 | 0.00 | 0.00 | 92 | 1006.6 |
| 20260510021150 | 60 | 277 | 1.0 | 1.0 | 0.00 | 0.00 | 0.00 | 92 | 1006.9 |
| 20260510020650 | 61 | 277 | 0.0 | 0.0 | 0.00 | 0.00 | 0.00 | 91 | 1006.6 |
| 20260510020145 | 61 | 277 | 0.0 | 0.0 | 0.00 | 0.00 | 0.00 | 91 | 1006.5 |
| 20260510015641 | 61 | 277 | 0.0 | 0.0 | 0.00 | 0.00 | 0.00 | 90 | 1006.6 |
| 20260510015138 | 61 | 277 | 0.0 | 0.0 | 0.00 | 0.00 | 0.00 | 90 | 1006.4 |
| 20260510014638 | 62 | 277 | 0.0 | 0.0 | 0.00 | 0.00 | 0.00 | 90 | 1006.4 |
| 20260510014136 | 62 | 277 | 0.0 | 0.0 | 0.00 | 0.00 | 0.00 | 90 | 1006.5 |
| 20260510013637 | 62 | 277 | 0.0 | 0.0 | 0.00 | 0.00 | 0.00 | 89 | 1006.4 |
| 20260510013132 | 62 | 277 | 0.0 | 0.0 | 0.00 | 0.00 | 0.00 | 90 | 1006.2 |
| 20260510012632 | 62 | 277 | 0.0 | 0.0 | 0.00 | 0.00 | 0.00 | 90 | 1006.2 |
| 20260510012129 | 62 | 277 | 0.0 | 0.0 | 0.00 | 0.00 | 0.00 | 89 | 1006.1 |
| 20260510011629 | 62 | 277 | 0.0 | 0.0 | 0.00 | 0.00 | 0.00 | 89 | 1005.9 |
| 20260510011125 | 63 | 277 | 0.0 | 0.0 | 0.00 | 0.00 | 0.00 | 88 | 1006.1 |
| 20260510010621 | 63 | 277 | 0.0 | 0.0 | 0.00 | 0.00 | 0.00 | 87 | 1005.8 |
| 20260510010118 | 63 | 277 | 0.0 | 0.0 | 0.00 | 0.00 | 0.00 | 87 | 1005.9 |
| 20260510005613 | 64 | 277 | 0.0 | 0.0 | 0.00 | 0.00 | 0.00 | 86 | 1005.8 |
| 20260510005111 | 64 | 277 | 0.0 | 0.0 | 0.00 | 0.00 | 0.00 | 85 | 1005.6 |
| 20260510004609 | 65 | 277 | 0.0 | 0.0 | 0.00 | 0.00 | 0.00 | 83 | 1005.5 |
| 20260510004107 | 65 | 277 | 0.0 | 0.0 | 0.00 | 0.00 | 0.00 | 82 | 1005.3 |
| 20260510003604 | 65 | 277 | 0.0 | 0.0 | 0.00 | 0.00 | 0.00 | 82 | 1005.3 |
| 20260510003059 | 65 | 277 | 0.0 | 0.0 | 0.00 | 0.00 | 0.00 | 82 | 1005.1 |
| 20260510002554 | 66 | 277 | 0.0 | 0.0 | 0.00 | 0.00 | 0.00 | 82 | 1005.2 |
| 20260510002051 | 66 | 278 | 0.0 | 0.0 | 0.00 | 0.00 | 0.00 | 81 | 1005.1 |
| 20260510001548 | 67 | 242 | 1.0 | 0.0 | 0.00 | 0.00 | 0.00 | 79 | 1005.2 |
| 20260510001048 | 68 | 242 | 0.0 | 0.0 | 0.00 | 0.00 | 0.00 | 77 | 1005.1 |
| 20260510000542 | 68 | 242 | 0.0 | 0.0 | 0.00 | 0.00 | 0.00 | 75 | 1005.2 |
| 20260510000039 | 69 | 242 | 0.0 | 0.0 | 0.00 | 0.00 | 0.00 | 72 | 1004.9 |
| 20260509235536 | 69 | 242 | 0.0 | 0.0 | 0.00 | 0.00 | 0.00 | 72 | 1004.8 |
| 20260509235033 | 69 | 242 | 0.0 | 0.0 | 0.00 | 0.00 | 0.00 | 72 | 1004.8 |
| 20260509234529 | 69 | 242 | 0.0 | 0.0 | 0.00 | 0.00 | 0.00 | 71 | 1004.7 |
| 20260509234027 | 69 | 240 | 1.0 | 1.0 | 0.00 | 0.00 | 0.00 | 71 | 1004.8 |
| 20260509233524 | 70 | 230 | 0.0 | 0.0 | 0.00 | 0.00 | 0.00 | 70 | 1004.9 |
| 20260509233021 | 70 | 230 | 1.0 | 1.0 | 0.00 | 0.00 | 0.00 | 70 | 1004.8 |
| 20260509232518 | 70 | 282 | 1.0 | 1.0 | 0.00 | 0.00 | 0.00 | 69 | 1004.7 |
| 20260509232014 | 71 | 282 | 1.0 | 1.0 | 0.00 | 0.00 | 0.00 | 68 | 1005.0 |
| 20260509231511 | 71 | 282 | 0.0 | 0.0 | 0.00 | 0.00 | 0.00 | 67 | 1004.9 |
| 20260509231008 | 71 | 282 | 1.0 | 1.0 | 0.00 | 0.00 | 0.00 | 67 | 1005.0 |
| 20260509230505 | 71 | 283 | 2.0 | 2.0 | 0.00 | 0.00 | 0.00 | 66 | 1004.7 |
| 20260509230002 | 71 | 228 | 0.0 | 1.0 | 0.00 | 0.00 | 0.00 | 66 | 1004.6 |
| 20260509225457 | 72 | 285 | 0.0 | 0.0 | 0.00 | 0.00 | 0.00 | 65 | 1004.6 |
| 20260509224953 | 72 | 247 | 0.0 | 0.0 | 0.00 | 0.00 | 0.00 | 65 | 1004.5 |
| 20260509224449 | 72 | 246 | 1.0 | 1.0 | 0.00 | 0.00 | 0.00 | 64 | 1004.6 |
| 20260509223946 | 72 | 221 | 1.0 | 1.0 | 0.00 | 0.00 | 0.00 | 63 | 1004.6 |
| 20260509223443 | 72 | 283 | 0.0 | 0.0 | 0.00 | 0.00 | 0.00 | 63 | 1004.3 |
| 20260509222940 | 72 | 266 | 1.0 | 1.0 | 0.00 | 0.00 | 0.00 | 62 | 1004.3 |
| 20260509222435 | 73 | 266 | 1.0 | 1.0 | 0.00 | 0.00 | 0.00 | 61 | 1004.3 |
| 20260509221931 | 74 | 262 | 1.0 | 2.0 | 0.00 | 0.00 | 0.00 | 61 | 1004.2 |
| 20260509221428 | 74 | 265 | 1.0 | 1.0 | 0.00 | 0.00 | 0.00 | 59 | 1004.2 |
| 20260509220924 | 74 | 152 | 0.0 | 1.0 | 0.00 | 0.00 | 0.00 | 58 | 1004.2 |
| 20260509220420 | 74 | 262 | 0.0 | 0.0 | 0.00 | 0.00 | 0.00 | 61 | 1004.5 |
| 20260509215916 | 74 | 263 | 1.0 | 1.0 | 0.00 | 0.00 | 0.00 | 60 | 1004.3 |
| 20260509215412 | 74 | 278 | 2.0 | 2.0 | 0.00 | 0.00 | 0.00 | 60 | 1004.4 |
| 20260509214910 | 74 | 341 | 4.0 | 4.0 | 0.00 | 0.00 | 0.00 | 59 | 1004.1 |
| 20260509214407 | 74 | 259 | 0.0 | 0.0 | 0.00 | 0.00 | 0.00 | 61 | 1004.3 |
| 20260509213904 | 74 | 199 | 0.0 | 0.0 | 0.00 | 0.00 | 0.00 | 59 | 1004.2 |
| 20260509213359 | 75 | 155 | 1.0 | 1.0 | 0.00 | 0.00 | 0.00 | 58 | 1004.5 |
| 20260509212857 | 74 | 187 | 2.0 | 2.0 | 0.00 | 0.00 | 0.00 | 58 | 1004.2 |
| 20260509212354 | 74 | 283 | 1.0 | 1.0 | 0.00 | 0.00 | 0.00 | 60 | 1004.4 |
| 20260509211850 | 73 | 226 | 1.0 | 1.0 | 0.00 | 0.00 | 0.00 | 59 | 1004.2 |
| 20260509211346 | 73 | 304 | 2.0 | 2.0 | 0.00 | 0.00 | 0.00 | 60 | 1004.0 |
| 20260509210843 | 73 | 245 | 1.0 | 2.0 | 0.00 | 0.00 | 0.00 | 63 | 1003.9 |
| 20260509210341 | 73 | 311 | 2.0 | 2.0 | 0.00 | 0.00 | 0.00 | 62 | 1004.1 |
| 20260509205840 | 73 | 266 | 2.0 | 2.0 | 0.00 | 0.00 | 0.00 | 62 | 1004.2 |
| 20260509205335 | 74 | 280 | 2.0 | 2.0 | 0.00 | 0.00 | 0.00 | 63 | 1004.2 |
| 20260509204832 | 75 | 321 | 3.0 | 3.0 | 0.00 | 0.00 | 0.00 | 61 | 1004.2 |
| 20260509204328 | 75 | 326 | 4.0 | 6.0 | 0.00 | 0.00 | 0.00 | 60 | 1003.9 |
| 20260509203824 | 74 | 148 | 5.0 | 8.0 | 0.00 | 0.00 | 0.00 | 60 | 1004.1 |
| 20260509203321 | 74 | 146 | 2.0 | 3.0 | 0.00 | 0.00 | 0.00 | 59 | 1004.2 |
| 20260509202817 | 75 | 155 | 1.0 | 2.0 | 0.00 | 0.00 | 0.00 | 59 | 1004.0 |
| 20260509202314 | 74 | 225 | 1.0 | 1.0 | 0.00 | 0.00 | 0.00 | 61 | 1003.9 |
| 20260509201813 | 74 | 291 | 2.0 | 2.0 | 0.00 | 0.00 | 0.00 | 62 | 1004.2 |
| 20260509201310 | 75 | 284 | 1.0 | 3.0 | 0.00 | 0.00 | 0.00 | 61 | 1004.4 |
| 20260509200806 | 75 | 355 | 3.0 | 6.0 | 0.00 | 0.00 | 0.00 | 60 | 1004.3 |
| 20260509200302 | 74 | 227 | 1.0 | 2.0 | 0.00 | 0.00 | 0.00 | 65 | 1004.2 |
| 20260509195758 | 74 | 225 | 0.0 | 0.0 | 0.00 | 0.00 | 0.00 | 62 | 1004.5 |
| 20260509195253 | 73 | 255 | 1.0 | 1.0 | 0.00 | 0.00 | 0.00 | 66 | 1004.3 |
| 20260509194748 | 74 | 176 | 4.0 | 4.0 | 0.00 | 0.00 | 0.00 | 60 | 1004.6 |
| 20260509194244 | 74 | 279 | 0.0 | 1.0 | 0.00 | 0.00 | 0.00 | 62 | 1004.4 |
| 20260509193741 | 73 | 185 | 1.0 | 1.0 | 0.00 | 0.00 | 0.00 | 63 | 1004.5 |
| 20260509193241 | 72 | 241 | 1.0 | 1.0 | 0.00 | 0.00 | 0.00 | 65 | 1004.6 |
| 20260509192737 | 72 | 316 | 3.0 | 3.0 | 0.00 | 0.00 | 0.00 | 67 | 1004.6 |
| 20260509192232 | 71 | 276 | 2.0 | 2.0 | 0.00 | 0.00 | 0.00 | 67 | 1004.6 |
| 20260509191728 | 71 | 210 | 1.0 | 1.0 | 0.00 | 0.00 | 0.00 | 67 | 1004.6 |
| 20260509191225 | 70 | 259 | 2.0 | 2.0 | 0.00 | 0.00 | 0.00 | 69 | 1004.8 |
| 20260509190721 | 70 | 269 | 2.0 | 2.0 | 0.00 | 0.00 | 0.00 | 68 | 1004.8 |
| 20260509190218 | 70 | 277 | 2.0 | 2.0 | 0.00 | 0.00 | 0.00 | 69 | 1005.0 |
| 20260509185716 | 70 | 198 | 1.0 | 1.0 | 0.00 | 0.00 | 0.00 | 69 | 1005.0 |
| 20260509185212 | 70 | 324 | 3.0 | 3.0 | 0.00 | 0.00 | 0.00 | 68 | 1005.0 |
| 20260509184709 | 71 | 333 | 4.0 | 4.0 | 0.00 | 0.00 | 0.00 | 67 | 1005.1 |
| 20260509184206 | 71 | 276 | 1.0 | 1.0 | 0.00 | 0.00 | 0.00 | 68 | 1004.9 |
| 20260509183702 | 70 | 260 | 1.0 | 1.0 | 0.00 | 0.00 | 0.00 | 68 | 1004.9 |
| 20260509183158 | 69 | 312 | 1.0 | 1.0 | 0.00 | 0.00 | 0.00 | 70 | 1005.0 |
| 20260509182653 | 69 | 327 | 3.0 | 3.0 | 0.00 | 0.00 | 0.00 | 68 | 1005.1 |
| 20260509182151 | 69 | 288 | 3.0 | 3.0 | 0.00 | 0.00 | 0.00 | 70 | 1004.9 |
| 20260509181649 | 70 | 340 | 3.0 | 3.0 | 0.00 | 0.00 | 0.00 | 67 | 1005.1 |
| 20260509181146 | 70 | 300 | 2.0 | 2.0 | 0.00 | 0.00 | 0.00 | 66 | 1004.9 |
| 20260509180643 | 70 | 259 | 1.0 | 1.0 | 0.00 | 0.00 | 0.00 | 68 | 1005.3 |
| 20260509180139 | 70 | 235 | 1.0 | 1.0 | 0.00 | 0.00 | 0.00 | 68 | 1005.0 |
| 20260509175635 | 70 | 292 | 1.0 | 1.0 | 0.00 | 0.00 | 0.00 | 68 | 1005.3 |
| 20260509175132 | 69 | 295 | 2.0 | 2.0 | 0.00 | 0.00 | 0.00 | 69 | 1005.5 |
| 20260509174628 | 70 | 66 | 2.0 | 2.0 | 0.00 | 0.00 | 0.00 | 68 | 1005.6 |
| 20260509174123 | 69 | 54 | 2.0 | 2.0 | 0.00 | 0.00 | 0.00 | 67 | 1005.4 |